Strait of Belle Isle: Past 24 Hour Conditions

 

Îles de la Madeleine Airport

09:00 PM ADT 01 August 2014
This table is a summary of hourly weather conditions for the past 24 hours.
Date / Time
(ADT)
Wind(knots) Conditions Visibility(km) Pressure(kPa) Air tempC) Relative humidity(%) Dew pointC) Humidex
01 August 2014
21:00 S 8 Mainly Clear 32 102.3 20 87 18 *
20:00 S 6 Partly Cloudy 32 102.3 21 81 17 26
19:00 SSW 6 Partly Cloudy 32 102.3 22 72 17 27
18:00 SSW 6 Mainly Sunny 32 102.3 24 62 16 28
17:00 WNW 7 Mainly Sunny 32 102.3 23 72 18 30
16:00 WNW 6 Mainly Sunny 32 102.3 23 71 18 29
15:00 W 10 Partly Cloudy 32 102.3 22 73 17 27
14:00 WNW 12 Mainly Sunny 32 102.3 23 69 18 29
13:00 SW 9 gust 15 Mainly Sunny 32 102.3 24 59 15 28
12:00 SW 8 Partly Cloudy 32 102.4 24 65 17 29
11:00 SW 11 Mainly Sunny 32 102.3 23 64 16 27
10:00 SW 9 Mainly Sunny 32 102.3 22 66 16 26
9:00 SW 8 Mainly Sunny 32 102.3 22 67 16 26
8:00 SW 7 Mainly Sunny 32 102.3 21 74 16 25
7:00 SW 6 Mainly Sunny 32 102.2 19 83 16 *
6:00 SW 8 Mainly Sunny 32 102.2 19 84 16 *
5:00 SSW 8 N/A N/A 102.2 19 85 16 *
4:00 SSW 7 Clear 24 102.2 19 85 17 *
3:00 SSW 8 Clear 24 102.2 19 88 17 *
2:00 SSW 8 Clear 24 102.2 19 85 17 *
1:00 SSW 9 Clear 24 102.2 19 86 17 *
0:00 SSW 10 N/A N/A 102.1 19 85 17 *
31 July 2014
23:00 SSW 10 gust 16 Clear 24 102.2 20 80 17 25
22:00 SSW 8 Clear 24 102.2 20 82 17 *
21:00 SSW 9 Mainly Clear 32 102.1 20 84 17 *
 
Map of Atlantic - Newfoundland marine weather areas Southwestern Grand Banks - 44138 Banquereau - 44139 Tail of the Bank - 44140 Nickerson Bank - 44251 Northeast Burgeo Bank - 44255 Blanc-Sablon Airport Cap Whittle Chevery Natashquan Airport Heath Point Miscou Island Grand Étang Ingonish Beach North Mountain St.Paul Island J.A. Douglas McCurdy Sydney Airport Charlottetown Airport East Point North Cape Argentia Bonavista Burgeo Cape Race Corner Brook Daniel's Harbour Englee Ferolle Point La Scie Port aux Basques Rocky Harbour Sagona Island St. Anthony Airport St. John's Int'l Airport St. Lawrence Stephenville Airport Twillingate Winterland Wreckhouse Cartwright Airport Mary's Harbour Grates Cove Pool's Island Marticot Island Long Pond Îles de la Madeleine Airport
Legend: buoyBuoy land stationLand Station